Regional Weather Roundup
Issued by NWS

Home | Current Version | Previous Version | Graphics & Text | Print | Product List | Glossary On
Versions: 1 2 3 4 5 6 7 8 9 10 11 12 13 14 15 16 17 18 19 20 21 22 23 24 25 26 27 28 29 30 31 32 33 34 35 36 37 38 39 40 41 42 43 44 45 46 47 48 49 50
000
ASUS43 KDTX 271901
RWRMI
MICHIGAN HOURLY REGIONAL WEATHER ROUNDUP
NATIONAL WEATHER SERVICE DETROIT/PONTIAC MI
200 PM EST SAT DEC 27 2014

NOTE: "FAIR" INDICATES FEW OR NO CLOUDS BELOW 12,000 FEET WITH NO
SIGNIFICANT WEATHER AND/OR OBSTRUCTION TO VISIBILITY.

MIZ047>049-052>055-059>063-066>070-074>076-081>083-272000-
SOUTHEAST LOWER MICHIGAN

CITY           SKY/WX    TMP DP  RH WIND       PRES   REMARKS
ADRIAN         CLOUDY    46  44  93 SW15G25   29.98F
ALMA           CLOUDY    47  44  91 SW16G23   29.88R
ANN ARBOR      CLOUDY    46  44  93 SW15G25   29.96F
BAD AXE        CLOUDY    47  46  96 SW16G23   29.85S
CARO           CLOUDY    48  44  86 SW17G26   29.86R
DETROIT CITY   CLOUDY    49  43  80 SW16G22   29.95F
DETROIT        CLOUDY    47  44  90 S18G28    29.96F
FLINT          CLOUDY    49  43  80 SW18G25   29.91R
GROSSE ILE     CLOUDY    48  45  87 S14G20    29.96F
HILLSDALE      CLOUDY    46  46 100 SW9G22    29.96F FOG
HOWELL         CLOUDY    46  44  96 SW12      29.91F FOG

CITY           SKY/WX    TMP DP  RH WIND       PRES   REMARKS
JACKSON        CLOUDY    46  44  93 SW13      29.94S
LAMBERTVILLE   CLOUDY    50  43  76 SW14G22   29.98F
LANSING        CLOUDY    48  44  86 SW18G28   29.91F
LAPEER         CLOUDY    47  43  86 SW18G25   29.90R
MASON          CLOUDY    46  43  91 SW9       29.91F
MONROE         CLOUDY    48  45  87 SW15G22   29.95F
MT. CLEMENS    CLOUDY    46  43  88 S15       29.91F
PONTIAC        CLOUDY    45  43  93 SW17      29.92F
PORT HOPE        N/A     48  42  80 SW12G21   29.82F
PORT HURON     CLOUDY    45  43  93 S15G23    29.92F
TRI CITIES     CLOUDY    49  44  83 SW17G25   29.85F
TROY           CLOUDY    47  44  87 SW13G22   29.95F
SAGINAW HB     CLOUDY    46  46 100 SW20G26   29.85F
$$
MIZ043>046-050>051-056>058-064>065-071>073-077>080-272000-
SOUTHWEST LOWER MICHIGAN

CITY           SKY/WX    TMP DP  RH WIND       PRES   REMARKS
BATTLE CREEK   CLOUDY    48  45  89 SW21      29.94F
BENTON HARBOR  CLOUDY    48  46  93 SW17G26   29.91F
BIG RAPIDS     LGT RAIN  46  46  98 SW16G25   29.82S
COLDWATER      CLOUDY    46  45  97 SW18G25   29.96S FOG
FREMONT        CLOUDY    45  45  98 SW22G35   29.83F FOG
HOLLAND        CLOUDY    49  45  86 SW28G38   29.89F
GRAND RAPIDS   CLOUDY    48  44  86 SW16G30   29.88F
IONIA          CLOUDY    48  46  91 SW21G28   29.87F
KALAMAZOO      CLOUDY    48  45  89 SW14G24   29.94F FOG
MARSHALL       CLOUDY    46  44  93 SW15      29.93F
MOUNT PLEASANT RAIN      47  45  92 SW20G29   29.83S
MUSKEGON       FOG       46  44  93 S20G33    29.85F VSB 3/4
SOUTH HAVEN    CLOUDY    49  46  88 SW21G32   29.91F FOG
$$
MIZ016>042-272000-
NORTHERN LOWER MICHIGAN

CITY           SKY/WX    TMP DP  RH WIND       PRES   REMARKS
ALPENA         CLOUDY    46  42  86 SW21G29   29.72F
BEAVER ISLAND  CLOUDY    34  34 100 N5        29.70F WCI  30
BELLAIRE       LGT RAIN  45  43  94 S8        29.72S
CADILLAC       LGT RAIN  43  42  96 SW18G29   29.76R
CHARLEVOIX     CLOUDY    44  43  97 SW22G37   29.74R
FRANKFORT      LGT RAIN  42  41  98 W17G24    29.76R
GAYLORD        LGT RAIN  41  41 100 SW16      29.69F
GRAYLING       DRIZZLE   44  44 100 SW12G23   29.74F
HARBOR SPRINGS DRIZZLE   43  42  96 SW12G18   29.69F
HOUGHTON LAKE  LGT RAIN  44  42  93 SW15G25   29.76F
MANISTEE       CLOUDY    46  43  87 SW14G30   29.77S
OSCODA         CLOUDY    44  42  93 S13G23    29.77F
PELLSTON       LGT RAIN  45  42  89 SW10G24   29.70S
ROGERS CITY    RAIN      44  43  98 SW13      29.72R
TRAVERSE CITY  RAIN      47  45  93 SW7G18    29.72R FOG
$$
MIZ007>008-015-272000-
EASTERN UPPER MICHIGAN

CITY           SKY/WX    TMP DP  RH WIND       PRES   REMARKS
KINROSS        CLOUDY    34  34 100 N5        29.67F WCI  30
MACKINAC ISLAN LGT RAIN  40  40 100 S8G16     29.67F WCI  34
NEWBERRY       LGT SNOW  32  32 100 N8        29.71S WCI  24
S. S. MARIE    LGT RAIN  34  33  96 N3        29.68F FOG
MUNISING         N/A     34  31  88 N17       29.78R WCI  23
$$
MIZ004>006-011>014-085-272000-
CENTRAL UPPER MICHIGAN

CITY           SKY/WX    TMP DP  RH WIND       PRES   REMARKS
MANISTIQUE     LGT SNOW  32  32 100 N10       29.73R WCI  24
ESCANABA       CLOUDY    34  28  80 N7        29.76R WCI  28
MENOMINEE      CLOUDY    34  30  86 NW7       29.78S WCI  28
SAWYER-GWINN   SNOW      30  28  93 N15       29.78R VSB 1/4 WCI  19
$$
MIZ001>003-009>011-084-272000-
WESTERN UPPER MICHIGAN

CITY           SKY/WX    TMP DP  RH WIND       PRES   REMARKS
IRON MOUNTAIN  LGT SNOW  32  28  85 NW13      29.78S FOG     WCI  22
HOUGHTON       LGT SNOW  29  23  78 N8        29.84F WCI  21
COPPER HARBOR    N/A     30  25  81 NE10      29.86F WCI  21
IRONWOOD       CLOUDY    25  25 100 NW14      29.89R WCI  13
$$

ABBREVIATIONS USED IN REMARKS
   TC - TEMPERATURE IN CELSIUS
  WCI - WIND CHILL INDEX
   HX - HEAT INDEX
  VSB - VISIBILITY




USA.gov is the U.S. government's official web portal to all federal, state and local government web resources and services.